Flag for Canada Weather past 2 weeks in Cornwall, Ontario, Canada

Now
-2 °F

Frigid.


Feels Like: -10 °F
Forecast: -8 / 18 °F
Wind: 3 mph from Southwest

Location: St Anicet

Current Time: Mar 5, 2015 at 11:50:34 PM

Latest Report: Mar 5, 2015 at 11:00 PM


Visibility: N/A

Pressure: 30.42 "Hg

Humidity: 60%

Dew point: -12 °F

Location of CornwallLocation

Historic Weather in Cornwall — Graph

°F

Cornwall temperature yesterday

Maximum temperature yesterday: 35 °F (at 4:00 PM)
Minimum temperature yesterday: 23 °F (at 12:00 AM)
Average temperature yesterday: 30 °F

Past Weeks' High & Low Weather Summary

 TemperatureHumidityPressure
High35 °F (Mar 4, 4:00 PM)100% (Feb 19, 1:00 AM)30.76 "Hg (Feb 19, 1:00 AM)
Low-21 °F (Feb 23, 10:00 PM)34% (Feb 24, 10:00 PM)29.54 "Hg (Mar 3, 11:00 PM)
Average10 °F68%30.15 "Hg
* Reported Feb 18 10:00 PM — Mar 5 10:00 PM, Cornwall, Weather by CustomWeather, © 2015

Note: Actual official high and low records may vary slightly from our data, if they occured in-between our weather recording intervals... More about our weather records

Advertising

Cornwall weather history for previous 24 hours

 ConditionsComfort  
Time TempWeatherWind HumidityBarometerVisibility
10:00 PM
Thu, Mar 5
-5 °FFrigid.5 mph66%30.42 "HgN/A
9:00 PM-5 °FFrigid.3 mph57%30.40 "HgN/A
8:00 PM2 °FFrigid.5 mph50%30.37 "HgN/A
7:00 PM5 °FFrigid.5 mph46%30.35 "HgN/A
6:00 PM9 °FFrigid.7 mph43%30.32 "HgN/A
5:00 PM11 °FCold.8 mph40%30.30 "HgN/A
4:00 PM12 °FCold.9 mph42%30.30 "HgN/A
3:00 PM12 °FCold.9 mph41%30.29 "HgN/A
2:00 PM11 °FCold.7 mph44%30.28 "HgN/A
1:00 PM10 °FFrigid.7 mph46%30.28 "HgN/A
12:00 PM9 °FFrigid.8 mph47%30.31 "HgN/A
11:00 AM8 °FFrigid.8 mph52%30.32 "HgN/A
10:00 AM7 °FFrigid.8 mph55%30.31 "HgN/A
9:00 AM6 °FFrigid.8 mph56%30.26 "HgN/A
8:00 AM7 °FFrigid.7 mph55%30.24 "HgN/A
7:00 AM8 °FFrigid.7 mph54%30.19 "HgN/A
6:00 AM10 °FCold.8 mph53%30.16 "HgN/A
5:00 AM13 °FCold.10 mph50%30.11 "HgN/A
4:00 AM15 °FCold.7 mph71%30.07 "HgN/A
3:00 AM17 °FCold.12 mph55%30.02 "HgN/A
2:00 AM19 °FCold.12 mph50%29.98 "HgN/A
1:00 AM21 °FCold.12 mph49%29.97 "HgN/A
12:00 AM22 °FCold.14 mph46%29.92 "HgN/A
11:00 PM
Wed, Mar 4
25 °FChilly.18 mph47%29.90 "HgN/A
Weather by CustomWeather, © 2015

See weather overviewHow to use our weather pages